User: anonymous   Login
Location: Unspecified
(0.0000°N, 0.0000°E)
Time: 06:15:41
(UTC+02:00)
Language:

Cosmos 1782 Rocket - Orbit

View from above orbital plane
View from above orbital plane
View from above satellite
View from above satellite

Ground track
Ground track

The orbit data is extracted from the following two-line orbital elements,

1 16987U 86074B   17296.28049490 +.00000117 +00000-0 +11428-4 0  9996
2 16987 082.5188 190.4563 0017768 194.1046 305.7028 14.82982102656343
Epoch (UTC): 23 October 2017 06:43:54
Eccentricity: 0.0017768
inclination: 82.5188°
perigee height: 607 km
apogee height: 632 km
right ascension of ascending node: 190.4563°
argument of perigee: 194.1046°
revolutions per day: 14.82982102
mean anomaly at epoch: 305.7028°
orbit number at epoch: 65634

The dashed part of the orbit path shows where the satellite is in the earth's shadow,  

DLR